Time,TemperatureF,DewpointF,PressureIn,WindDirection,WindDirectionDegrees,WindSpeedMPH,WindSpeedGustMPH,Humidity,HourlyPrecipIn,Conditions,Clouds,dailyrainin,SolarRadiationWatts/m^2,SoftwareType,DateUTC
2013-04-17 00:03:00,62.0,58.0,-100.00,NNW,340,1.0,3.0,86,0.00,,,0.00,0.000000,,2013-04-17 04:03:00,
2013-04-17 00:33:00,62.0,58.0,-100.00,West,270,2.0,3.0,86,0.00,,,0.00,0.000000,,2013-04-17 04:33:00,
2013-04-17 00:43:00,62.0,58.0,-100.00,West,270,2.0,3.0,86,0.00,,,0.00,0.000000,,2013-04-17 04:43:00,
2013-04-17 00:53:00,62.0,58.0,-100.00,West,270,2.0,3.0,86,0.00,,,0.00,0.000000,,2013-04-17 04:53:00,
2013-04-17 01:03:00,62.0,58.0,-100.00,West,270,2.0,3.0,86,0.00,,,0.00,0.000000,,2013-04-17 05:03:00,
2013-04-17 01:22:00,61.0,57.0,-100.00,North,0,1.0,2.0,87,0.00,,,0.00,0.000000,,2013-04-17 05:22:00,
2013-04-17 01:32:00,61.0,57.0,-100.00,North,0,1.0,2.0,87,0.00,,,0.00,0.000000,,2013-04-17 05:32:00,
2013-04-17 01:43:00,61.0,57.0,-100.00,North,0,1.0,2.0,87,0.00,,,0.00,0.000000,,2013-04-17 05:43:00,
2013-04-17 01:52:00,61.0,57.0,-100.00,North,0,1.0,2.0,87,0.00,,,0.00,0.000000,,2013-04-17 05:52:00,
2013-04-17 02:02:00,61.0,57.0,-100.00,North,0,1.0,2.0,87,0.00,,,0.00,0.000000,,2013-04-17 06:02:00,
2013-04-17 02:32:00,58.0,55.0,-100.00,NE,53,1.0,3.0,91,0.00,,,0.00,0.000000,,2013-04-17 06:32:00,
2013-04-17 02:42:00,58.0,55.0,-100.00,NE,53,1.0,3.0,91,0.00,,,0.00,0.000000,,2013-04-17 06:42:00,
2013-04-17 02:52:00,58.0,55.0,-100.00,NE,53,1.0,3.0,91,0.00,,,0.00,0.000000,,2013-04-17 06:52:00,
2013-04-17 03:02:00,58.0,55.0,-100.00,NE,53,1.0,3.0,91,0.00,,,0.00,0.000000,,2013-04-17 07:02:00,
2013-04-17 03:32:00,57.0,56.0,-100.00,NNE,25,1.0,2.0,96,0.00,,,0.00,0.000000,,2013-04-17 07:32:00,
2013-04-17 03:42:00,57.0,56.0,-100.00,NNE,25,1.0,2.0,96,0.00,,,0.00,0.000000,,2013-04-17 07:42:00,
2013-04-17 03:52:00,57.0,56.0,-100.00,NNE,25,1.0,2.0,96,0.00,,,0.00,0.000000,,2013-04-17 07:52:00,
2013-04-17 04:02:00,57.0,56.0,-100.00,NNE,25,1.0,2.0,96,0.00,,,0.00,0.000000,,2013-04-17 08:02:00,
2013-04-17 04:22:00,57.0,56.0,-100.00,NW,304,1.0,4.0,95,0.00,,,0.00,0.000000,,2013-04-17 08:22:00,
2013-04-17 04:33:00,57.0,56.0,-100.00,NW,304,1.0,4.0,95,0.00,,,0.00,0.000000,,2013-04-17 08:33:00,
2013-04-17 04:42:00,57.0,56.0,-100.00,NW,304,1.0,4.0,95,0.00,,,0.00,0.000000,,2013-04-17 08:42:00,
2013-04-17 04:52:00,57.0,56.0,-100.00,NW,304,1.0,4.0,95,0.00,,,0.00,0.000000,,2013-04-17 08:52:00,
2013-04-17 05:02:00,57.0,56.0,-100.00,NW,304,1.0,4.0,95,0.00,,,0.00,0.000000,,2013-04-17 09:02:00,
2013-04-17 05:33:00,57.0,56.0,-100.00,NNW,341,1.0,2.0,96,0.00,,,0.00,0.000000,,2013-04-17 09:33:00,
2013-04-17 05:42:00,57.0,56.0,-100.00,NNW,341,1.0,2.0,96,0.00,,,0.00,0.000000,,2013-04-17 09:42:00,
2013-04-17 05:53:00,57.0,56.0,-100.00,NNW,341,1.0,2.0,96,0.00,,,0.00,0.000000,,2013-04-17 09:53:00,
2013-04-17 06:03:00,57.0,56.0,-100.00,NNW,341,1.0,2.0,96,0.00,,,0.00,0.000000,,2013-04-17 10:03:00,
2013-04-17 06:33:00,61.0,57.0,-100.00,SSW,213,4.0,6.0,88,0.00,,,0.00,0.000000,,2013-04-17 10:33:00,
2013-04-17 06:43:00,61.0,57.0,-100.00,SSW,213,4.0,6.0,88,0.00,,,0.00,0.000000,,2013-04-17 10:43:00,
2013-04-17 06:53:00,61.0,57.0,-100.00,SSW,213,4.0,6.0,88,0.00,,,0.00,0.000000,,2013-04-17 10:53:00,
2013-04-17 07:02:00,61.0,57.0,-100.00,SSW,213,4.0,6.0,88,0.00,,,0.00,0.000000,,2013-04-17 11:02:00,
2013-04-17 07:22:00,58.0,56.0,-100.00,WNW,300,1.0,3.0,92,0.00,,,0.00,1.000000,,2013-04-17 11:22:00,
2013-04-17 07:32:00,58.0,56.0,-100.00,WNW,300,1.0,3.0,92,0.00,,,0.00,1.000000,,2013-04-17 11:32:00,
2013-04-17 07:42:00,58.0,56.0,-100.00,WNW,300,1.0,3.0,92,0.00,,,0.00,1.000000,,2013-04-17 11:42:00,
2013-04-17 07:52:00,58.0,56.0,-100.00,WNW,300,1.0,3.0,92,0.00,,,0.00,1.000000,,2013-04-17 11:52:00,
2013-04-17 08:03:00,58.0,56.0,-100.00,WNW,300,1.0,3.0,92,0.00,,,0.00,1.000000,,2013-04-17 12:03:00,
2013-04-17 08:32:00,63.0,60.0,-100.00,WSW,247,2.0,4.0,91,0.00,,,0.00,84.000000,,2013-04-17 12:32:00,
2013-04-17 08:42:00,63.0,60.0,-100.00,WSW,247,2.0,4.0,91,0.00,,,0.00,84.000000,,2013-04-17 12:42:00,
2013-04-17 08:52:00,63.0,60.0,-100.00,WSW,247,2.0,4.0,91,0.00,,,0.00,84.000000,,2013-04-17 12:52:00,
2013-04-17 09:02:00,63.0,60.0,-100.00,WSW,247,2.0,4.0,91,0.00,,,0.00,84.000000,,2013-04-17 13:02:00,
2013-04-17 09:22:00,66.0,59.0,-100.00,SSW,202,2.0,6.0,79,0.00,,,0.00,150.000000,,2013-04-17 13:22:00,
2013-04-17 09:32:00,66.0,59.0,-100.00,SSW,202,2.0,6.0,79,0.00,,,0.00,150.000000,,2013-04-17 13:32:00,
2013-04-17 09:42:00,66.0,59.0,-100.00,SSW,202,2.0,6.0,79,0.00,,,0.00,150.000000,,2013-04-17 13:42:00,
2013-04-17 09:52:00,66.0,59.0,-100.00,SSW,202,2.0,6.0,79,0.00,,,0.00,150.000000,,2013-04-17 13:52:00,
2013-04-17 10:02:00,66.0,59.0,-100.00,SSW,202,2.0,6.0,79,0.00,,,0.00,150.000000,,2013-04-17 14:02:00,
2013-04-17 10:32:00,69.0,60.0,-100.00,WNW,289,2.0,6.0,72,0.00,,,0.00,198.000000,,2013-04-17 14:32:00,
2013-04-17 10:43:00,69.0,60.0,-100.00,WNW,289,2.0,6.0,72,0.00,,,0.00,198.000000,,2013-04-17 14:43:00,
2013-04-17 10:52:00,69.0,60.0,-100.00,WNW,289,2.0,6.0,72,0.00,,,0.00,198.000000,,2013-04-17 14:52:00,
2013-04-17 11:02:00,69.0,60.0,-100.00,WNW,289,2.0,6.0,72,0.00,,,0.00,198.000000,,2013-04-17 15:02:00,
2013-04-17 11:22:00,75.0,60.0,-100.00,NNW,342,4.0,10.0,59,0.00,,,0.00,567.000000,,2013-04-17 15:22:00,
2013-04-17 11:33:00,75.0,60.0,-100.00,NNW,342,4.0,10.0,59,0.00,,,0.00,567.000000,,2013-04-17 15:33:00,
2013-04-17 11:43:00,75.0,60.0,-100.00,NNW,342,4.0,10.0,59,0.00,,,0.00,567.000000,,2013-04-17 15:43:00,
2013-04-17 11:53:00,75.0,60.0,-100.00,NNW,342,4.0,10.0,59,0.00,,,0.00,567.000000,,2013-04-17 15:53:00,
2013-04-17 12:03:00,75.0,60.0,-100.00,NNW,342,4.0,10.0,59,0.00,,,0.00,567.000000,,2013-04-17 16:03:00,
2013-04-17 12:23:00,72.0,56.0,-100.00,North,349,5.0,10.0,57,0.00,,,0.00,286.000000,,2013-04-17 16:23:00,
2013-04-17 12:32:00,72.0,56.0,-100.00,North,349,5.0,10.0,57,0.00,,,0.00,286.000000,,2013-04-17 16:32:00,
2013-04-17 12:42:00,72.0,56.0,-100.00,North,349,5.0,10.0,57,0.00,,,0.00,286.000000,,2013-04-17 16:42:00,
2013-04-17 12:52:00,72.0,56.0,-100.00,North,349,5.0,10.0,57,0.00,,,0.00,286.000000,,2013-04-17 16:52:00,
2013-04-17 13:02:00,72.0,56.0,-100.00,North,349,5.0,10.0,57,0.00,,,0.00,286.000000,,2013-04-17 17:02:00,
2013-04-17 13:33:00,73.0,58.0,-100.00,NNW,337,5.0,10.0,59,0.00,,,0.00,366.000000,,2013-04-17 17:33:00,
2013-04-17 13:42:00,73.0,58.0,-100.00,NNW,337,5.0,10.0,59,0.00,,,0.00,366.000000,,2013-04-17 17:42:00,
2013-04-17 13:52:00,73.0,58.0,-100.00,NNW,337,5.0,10.0,59,0.00,,,0.00,366.000000,,2013-04-17 17:52:00,
2013-04-17 14:02:00,73.0,58.0,-100.00,NNW,337,5.0,10.0,59,0.00,,,0.00,366.000000,,2013-04-17 18:02:00,
2013-04-17 14:33:00,72.0,57.0,-100.00,North,5,3.0,8.0,60,0.00,,,0.00,329.000000,,2013-04-17 18:33:00,
2013-04-17 14:42:00,72.0,57.0,-100.00,North,5,3.0,8.0,60,0.00,,,0.00,329.000000,,2013-04-17 18:42:00,
2013-04-17 14:52:00,72.0,57.0,-100.00,North,5,3.0,8.0,60,0.00,,,0.00,329.000000,,2013-04-17 18:52:00,
2013-04-17 15:02:00,72.0,57.0,-100.00,North,5,3.0,8.0,60,0.00,,,0.00,329.000000,,2013-04-17 19:02:00,
2013-04-17 15:32:00,74.0,58.0,-100.00,NW,323,5.0,10.0,58,0.00,,,0.00,527.000000,,2013-04-17 19:32:00,
2013-04-17 15:42:00,74.0,58.0,-100.00,NW,323,5.0,10.0,58,0.00,,,0.00,527.000000,,2013-04-17 19:42:00,
2013-04-17 15:52:00,74.0,58.0,-100.00,NW,323,5.0,10.0,58,0.00,,,0.00,527.000000,,2013-04-17 19:52:00,
2013-04-17 16:03:00,74.0,58.0,-100.00,NW,323,5.0,10.0,58,0.00,,,0.00,527.000000,,2013-04-17 20:03:00,
2013-04-17 16:33:00,76.0,59.0,-100.00,NW,305,2.0,7.0,55,0.00,,,0.00,361.000000,,2013-04-17 20:33:00,
2013-04-17 16:42:00,76.0,59.0,-100.00,NW,305,2.0,7.0,55,0.00,,,0.00,361.000000,,2013-04-17 20:42:00,
2013-04-17 16:52:00,76.0,59.0,-100.00,NW,305,2.0,7.0,55,0.00,,,0.00,361.000000,,2013-04-17 20:52:00,
2013-04-17 17:03:00,76.0,59.0,-100.00,NW,305,2.0,7.0,55,0.00,,,0.00,361.000000,,2013-04-17 21:03:00,
2013-04-17 17:33:00,76.0,59.0,-100.00,West,272,3.0,6.0,56,0.00,,,0.00,283.000000,,2013-04-17 21:33:00,
2013-04-17 17:43:00,76.0,59.0,-100.00,West,272,3.0,6.0,56,0.00,,,0.00,283.000000,,2013-04-17 21:43:00,
2013-04-17 17:53:00,76.0,59.0,-100.00,West,272,3.0,6.0,56,0.00,,,0.00,283.000000,,2013-04-17 21:53:00,
2013-04-17 18:02:00,76.0,59.0,-100.00,West,272,3.0,6.0,56,0.00,,,0.00,283.000000,,2013-04-17 22:02:00,
2013-04-17 18:33:00,75.0,59.0,-100.00,SE,140,3.0,6.0,57,0.00,,,0.00,239.000000,,2013-04-17 22:33:00,
2013-04-17 18:43:00,75.0,59.0,-100.00,SE,140,3.0,6.0,57,0.00,,,0.00,239.000000,,2013-04-17 22:43:00,
2013-04-17 18:53:00,75.0,59.0,-100.00,SE,140,3.0,6.0,57,0.00,,,0.00,239.000000,,2013-04-17 22:53:00,
2013-04-17 19:02:00,75.0,59.0,-100.00,SE,140,3.0,6.0,57,0.00,,,0.00,239.000000,,2013-04-17 23:02:00,
2013-04-17 19:22:00,74.0,59.0,-100.00,South,189,2.0,4.0,60,0.00,,,0.00,126.000000,,2013-04-17 23:22:00,
2013-04-17 19:32:00,74.0,59.0,-100.00,South,189,2.0,4.0,60,0.00,,,0.00,126.000000,,2013-04-17 23:32:00,
2013-04-17 19:42:00,74.0,59.0,-100.00,South,189,2.0,4.0,60,0.00,,,0.00,126.000000,,2013-04-17 23:42:00,
2013-04-17 19:52:00,74.0,59.0,-100.00,South,189,2.0,4.0,60,0.00,,,0.00,126.000000,,2013-04-17 23:52:00,
2013-04-17 20:02:00,74.0,59.0,-100.00,South,189,2.0,4.0,60,0.00,,,0.00,126.000000,,2013-04-18 00:02:00,
2013-04-17 20:32:00,70.0,61.0,-100.00,North,5,1.0,2.0,73,0.00,,,0.00,16.000000,,2013-04-18 00:32:00,
2013-04-17 20:43:00,70.0,61.0,-100.00,North,5,1.0,2.0,73,0.00,,,0.00,16.000000,,2013-04-18 00:43:00,
2013-04-17 20:52:00,70.0,61.0,-100.00,North,5,1.0,2.0,73,0.00,,,0.00,16.000000,,2013-04-18 00:52:00,
2013-04-17 21:02:00,70.0,61.0,-100.00,North,5,1.0,2.0,73,0.00,,,0.00,16.000000,,2013-04-18 01:02:00,
2013-04-17 21:32:00,66.0,61.0,-100.00,NNW,334,1.0,4.0,84,0.00,,,0.00,0.000000,,2013-04-18 01:32:00,
2013-04-17 21:42:00,66.0,61.0,-100.00,NNW,334,1.0,4.0,84,0.00,,,0.00,0.000000,,2013-04-18 01:42:00,
2013-04-17 21:52:00,66.0,61.0,-100.00,NNW,334,1.0,4.0,84,0.00,,,0.00,0.000000,,2013-04-18 01:52:00,
2013-04-17 22:02:00,66.0,61.0,-100.00,NNW,334,1.0,4.0,84,0.00,,,0.00,0.000000,,2013-04-18 02:02:00,
2013-04-17 22:22:00,66.0,62.0,-100.00,South,183,1.0,3.0,86,0.00,,,0.00,0.000000,,2013-04-18 02:22:00,
2013-04-17 22:32:00,66.0,62.0,-100.00,South,183,1.0,3.0,86,0.00,,,0.00,0.000000,,2013-04-18 02:32:00,
2013-04-17 22:42:00,66.0,62.0,-100.00,South,183,1.0,3.0,86,0.00,,,0.00,0.000000,,2013-04-18 02:42:00,
2013-04-17 22:52:00,66.0,62.0,-100.00,South,183,1.0,3.0,86,0.00,,,0.00,0.000000,,2013-04-18 02:52:00,
2013-04-17 23:02:00,66.0,62.0,-100.00,South,183,1.0,3.0,86,0.00,,,0.00,0.000000,,2013-04-18 03:02:00,
2013-04-17 23:33:00,64.0,62.0,-100.00,WNW,291,0.0,2.0,93,0.00,,,0.00,0.000000,,2013-04-18 03:33:00,
2013-04-17 23:43:00,64.0,62.0,-100.00,WNW,291,0.0,2.0,93,0.00,,,0.00,0.000000,,2013-04-18 03:43:00,
2013-04-17 23:53:00,64.0,62.0,-100.00,WNW,291,0.0,2.0,93,0.00,,,0.00,0.000000,,2013-04-18 03:53:00,